Regional Weather Roundup
Issued by NWS

Home | Current Version | Previous Version | Text Only | Print | Product List | Glossary On
Versions: 1 2 3 4 5 6 7 8 9 10 11 12 13 14 15 16 17 18 19 20 21 22 23 24 25 26 27 28 29 30 31 32 33 34 35 36 37 38 39 40 41 42 43 44 45 46 47 48 49 50
000
ASUS43 KMPX 211101
RWRMN
WEATHER ROUNDUP FOR MINNESOTA
NATIONAL WEATHER SERVICE TWIN CITIES/CHANHASSEN MN
500 AM CST TUE NOV 21 2017


NOTE: "FAIR" INDICATES FEW OR NO CLOUDS BELOW 12,000 FEET WITH NO
SIGNIFICANT WEATHER AND/OR OBSTRUCTIONS TO VISIBILITY. N/A MEANS
CURRENT SKY AND/OR WEATHER CONDITIONS ARE NOT AVAILABLE.

MNZ060>063-068>070-211200-
   Twin Cities Metro

CITY           SKY/WX    TMP DP  RH WIND       PRES   REMARKS
TWIN CITIES    CLOUDY    28  14  55 NW24G36   29.74R WCI  14
ST PAUL        MOCLDY    28  13  53 NW25G36   29.76R WCI  13
CRYSTAL        CLOUDY    27  11  51 NW15G28   29.74R WCI  15
BLAINE         CLOUDY    28  14  54 W26G35    29.73R WCI  13
LAKEVILLE      CLOUDY    27  18  69 W17G31    29.74R WCI  14
EDEN PRAIRIE   CLOUDY    29  13  51 NW16G30   29.75R WCI  17
SOUTH ST PAUL  CLOUDY    29  14  54 NW21G32   29.74R WCI  16
LAKE ELMO      FAIR      28  14  54 NW21G32   29.74R WCI  15
$$
MNZ001>005-007-008-013>017-022>024-027-028-211200-
   Northwest Minnesota

CITY           SKY/WX    TMP DP  RH WIND       PRES   REMARKS
BEMIDJI        FLURRIES  15   9  77 NW24      29.77R WCI  -3
HALLOCK        CLOUDY    14   9  79 NW23G36   29.97R WCI  -5
ROSEAU         CLOUDY    16  10  79 N20G33    29.86R WCI  -1
WARROAD        LGT SNOW  16   9  73 NW12G29   29.84R WCI   3
THIEF RVR FALL LGT SNOW  14  10  85 NW25      29.87R FOG     WCI  -5
CROOKSTON      FLURRIES  16  10  79 N32G43    29.94R WCI  -5
FOSSTON        LGT SNOW  12   9  85 NW25G32   29.85R WCI  -8
DETROIT LAKES  LGT SNOW  18  12  79 NW25G35   29.87R WCI  -1
MOORHEAD       MIX PCPN  18   9  68 NW26G33   29.95R WCI  -1
PARK RAPIDS    FLURRIES  16   8  71 NW22G39   29.78R WCI  -2
MAHNOMEN       FLURRIES  14   9  78 NW26G37   29.87R WCI  -5
$$
MNZ006-009>011-018-025>026-211200-
   North Central Minnesota

CITY           SKY/WX    TMP DP  RH WIND       PRES   REMARKS
BAUDETTE       LGT SNOW  17  10  74 N26G39    29.75R WCI  -2
FLAG ISLAND    CLOUDY    16   9  73 N28G33    29.81R WCI  -4
INTL FALLS     LGT SNOW  18  11  74 NW21G29   29.67R WCI   1
WASKISH        FLURRIES  18  14  86 NW12G23   29.75R WCI   5
BIG FORK       LGT SNOW  18  12  79 NW12G22   29.67R WCI   5
LONGVILLE      FLURRIES  18  10  73 NW14G28   29.74R WCI   4
GRAND RAPIDS   FLURRIES  18  10  71 NW26G32   29.68R WCI  -1
CRANE LAKE     FLURRIES  19  14  79 N12G23    29.60R WCI   7
ORR            LGT SNOW  18  12  79 NW18G28   29.57R WCI   2
COOK           LGT SNOW  18  12  79 W15G26    29.60R WCI   3
WALKER         FLURRIES  16   8  73 NW21G35   29.75R WCI  -2
$$
MNZ012-019>021-037-211200-
   Northeast Minnesota

CITY           SKY/WX    TMP DP  RH WIND       PRES   REMARKS
DULUTH         FLURRIES  21  10  62 NW24G36   29.55R WCI   4
ELY            LGT SNOW  19  14  79 W17G25    29.50R WCI   4
HIBBING        MIX PCPN  18   9  68 NW25G32   29.61R WCI   0
EVELETH        FLURRIES  18   9  68 NW26G36   29.60R WCI  -1
DULUTH HARBOR  FLURRIES  28  18  64 W30G40    29.61R WCI  13
TWO HARBORS    MOCLDY    27  16  63 W17G26    29.52R WCI  14
SILVER BAY     MOCLDY    25  12  58 W9G25     29.48R WCI  15
GRAND MARAIS     N/A     29  19  66 W14G22    29.44R WCI  18
G MARAIS ARPRT LGT SNOW  19  12  73 W15G28    29.36R WCI   5
$$
MNZ029>031-032-039>041-046>048-054>057-064-211200-
   West Central Minnesota

CITY           SKY/WX    TMP DP  RH WIND       PRES   REMARKS
FERGUS FALLS   CLOUDY    19  10  68 NW30G38   29.92R WCI   0
WHEATON        CLOUDY    21  10  63 NW24G32   29.96R WCI   4
MORRIS         CLOUDY    21  12  68 NW26G39   29.88R WCI   4
ALEXANDRIA     CLOUDY    21  11  65 NW32G39   29.81R WCI   2
ELBOW LAKE     CLOUDY    19  11  68 W30G41    29.89R HAZE    WCI   0
WADENA         FLURRIES  16   9  73 NW29G37   29.81R WCI  -4
GLENWOOD       CLOUDY    21  12  68 NW22G41   29.82R WCI   5
APPLETON       CLOUDY    23  10  58 NW25G36   29.90R WCI   7
BENSON         CLOUDY    23  10  58 N28G39    29.88R WCI   6
ORTONVILLE     CLOUDY    19   9  63 MISG      29.93R
MADISON        MOCLDY    23  12  63 NW25G32   29.93R WCI   7
WILLMAR        CLOUDY    25  16  68 NW17G26   29.85R WCI  11
$$
MNZ033>034-036-042>043-049>051-058-059-211200-
   Central Minnesota

CITY           SKY/WX    TMP DP  RH WIND       PRES   REMARKS
ST CLOUD       FLURRIES  26  16  65 NW22G32   29.75R WCI  12
SAUK CENTRE    FLURRIES  23  14  70 NW28G40   29.78R WCI   5
PAYNESVILLE    FLURRIES  24  17  75 W23G33    29.79R WCI   9
AITKIN         FLURRIES  19  10  68 NW14G25   29.69R WCI   6
PINE RIVER     CLOUDY    16   9  73 NW17G31   29.78R WCI   0
BRAINERD       MIX PCPN  22  10  60 NW18G36   29.73R WCI   7
STAPLES        CLOUDY    18   7  62 NW28G39   29.79R WCI  -1
LONG PRAIRIE   LGT SNOW  23  18  80 W24G32    29.76R WCI   7
LITTLE FALLS   CLOUDY    23   5  46 NW24G31   29.76R WCI   7
LITCHFIELD     CLOUDY    27  18  69 NW18G28   29.80R WCI  13
BUFFALO        CLOUDY    27  15  61 W12G24    29.77R WCI  17
MAPLE LAKE     CLOUDY    28  18  67 NW16G28   29.76R WCI  16
HUTCHINSON     MOCLDY    26  17  68 W22G28    29.81R WCI  11
$$
MNZ037-044-045-052-053-211200-
   East Central Minnesota

CITY           SKY/WX    TMP DP  RH WIND       PRES   REMARKS
PRINCETON      CLOUDY    27  16  63 W17G26    29.73R WCI  14
MORA           CLOUDY    27  14  59 W18G29    29.69R WCI  13
CAMBRIDGE      CLOUDY    27  16  63 W13G21    29.72R WCI  16
RUSH CITY      CLOUDY    26  12  56 W16G29    29.69R WCI  13
MOOSE LAKE     CLOUDY    25  14  63 NW17G32   29.63R WCI  11
HINCKLEY       CLOUDY    27  16  63 W14G33    29.66R WCI  15
CLOQUET        FLURRIES  23  10  58 W20G38    29.59R WCI   8
MCGREGOR       CLOUDY    23  10  58 NW17G33   29.68R WCI   9
$$
MNZ071>073-080-081-089-090-097-098-211200-
   Southwest Minnesota

CITY           SKY/WX    TMP DP  RH WIND       PRES   REMARKS
MONTEVIDEO     MOCLDY    21  10  63 N21G29    29.89R WCI   6
GRANITE FALLS  MOCLDY    23  13  65 NW25G33   29.92R WCI   6
CANBY          PTCLDY    21  11  65 W22G31    29.96R WCI   5
MARSHALL       CLOUDY    21  10  62 NW28G39   29.91R WCI   3
REDWOOD FALLS  CLOUDY    25  10  53 NW18G31   29.86R WCI  11
OLIVIA         CLOUDY    23  14  68 NW21G32   29.85R WCI   8
PIPESTONE      MOCLDY    25   9  50 NW17G35   29.90R WCI  11
WINDOM           N/A     28  12  50 NW20G32   29.84R WCI  15
WORTHINGTON    CLOUDY    32  13  45 NW31G43   29.86R WCI  17
JACKSON        CLOUDY    32  14  47 NW26G32   29.84R WCI  18
SLAYTON        PTCLDY    30  14  51 NW26G32   29.85R WCI  15
$$
MNZ065>067-074>077-082>085-091>093-211200-
   South Central Minnesota

CITY           SKY/WX    TMP DP  RH WIND       PRES   REMARKS
MANKATO        PTCLDY    27  17  66 NW24G32   29.81R WCI  12
NEW ULM        PTCLDY    25  12  58 NW18G37   29.84R WCI  11
ST JAMES       CLOUDY    28  14  54 NW20      29.85R WCI  15
FAIRMONT       CLOUDY    34  16  47 NW25G35   29.82R WCI  21
GLENCOE        CLOUDY    28  17  64 W22G31    29.79R WCI  13
FARIBAULT      CLOUDY    28  16  59 NW21G33   29.77R WCI  15
OWATONNA       PTCLDY    28  18  64 NW30G36   29.77R WCI  13
WASECA         PTCLDY    28  18  64 NW25G35   29.79R WCI  14
ALBERT LEA     CLOUDY    30  12  47 NW15G30   29.76R WCI  19
$$
MNZ078>079-086>088-094>096-211200-
   Southeast Minnesota

CITY           SKY/WX    TMP DP  RH WIND       PRES   REMARKS
ROCHESTER      PTCLDY    31  15  52 NW33G43   29.68R WCI  15
RED WING       MOCLDY    32  16  51 NW21G32   29.70R WCI  20
STANTON        CLOUDY    30  18  61 W22G33    29.73R WCI  17
DODGE CENTER   CLOUDY    28  12  50 W28G36    29.71R WCI  13
WINONA         CLEAR     36  18  48 NW13G28   29.67R
AUSTIN         CLOUDY    30  14  51 NW31G39   29.74R WCI  15
PRESTON        CLOUDY    32  13  46 NW23G33   29.68R WCI  19
$$
ABBREVIATIONS USED IN REMARKS
   TC - TEMPERATURES IN CELSIUS
  WCI - WIND CHILL INDEX
   HX - HEAT INDEX
  VSB - VISIBILITY
$$




USA.gov is the U.S. government's official web portal to all federal, state and local government web resources and services.